Weather observations for the past three days for
Rochester - St. Mary's Hospital Heliport
Metric (Imperial)
Date Time (cdt) Wind (kph) Vis. (km) Weather Sky Cond. Temperature (ºC) Relative Humidity Wind Chill (°C) Heat Index (°C) Pressure Precipitation (cm)
Air Dwpt 6 hour altimeter (cm) sea level (mb) 1 hr 3 hr 6 hr
Max. Min.
05 05:15 NE 7 1.21 Overcast OVC002 21 0 0% 76.2 0.0
05 04:55 Calm 0.80 Overcast OVC002 21 0 0% 76.15 0.0
05 04:15 NE 6 11.27 Overcast OVC002 21 0 0% 76.15 0.0
05 03:55 NE 6 16.09 Mostly Cloudy BKN004 21 0 0% 76.15 0.0
05 03:35 Calm 16.09 Mostly Cloudy SCT004 BKN024 21 0 0% 76.17 0.0
05 03:15 N 9 16.09 Mostly Cloudy BKN024 22 0 0% 76.17 0.0
05 02:55 Calm 16.09 Fair CLR 22 0 0% 76.17 0.0
05 02:35 N 6 16.09 Fair CLR 22 0 0% 76.17 0.0
05 02:15 Calm 16.09 Fair CLR 23 0 0% 76.17 0.0
05 01:55 N 6 16.09 Fair CLR 23 0 0% 76.17 0.0
05 01:35 N 7 16.09 Fair CLR 23 23 100% 76.17 0.0
05 00:35 NE 6 16.09 Fair CLR 24 24 100% 23 76.15 0.0
05 00:15 N 7 16.09 Fair CLR 24.5 24.5 100% 24 76.12 0.0
04 23:55 N 6 16.09 Fair CLR 25 25 100% 25 76.12 0.0
04 23:35 N 6 16.09 Fair CLR 25.3 25.3 100% 26 76.12 0.0
04 23:15 Calm 16.09 Fair CLR 25.7 25 96% 27 76.12 0.0
04 22:55 N 9 16.09 Fair CLR 26 24.6 92% 28 76.12 0.0
04 22:35 N 9 16.09 Partly Cloudy SCT026 26.2 24.2 89% 28 76.12 0.0
04 22:15 N 7 16.09 Mostly Cloudy BKN026 26.5 24.5 89% 29 76.12 0.0
04 21:55 Calm 16.09 Overcast OVC026 27 24.5 86% 30 76.15 0.0
04 21:35 NE 9 16.09 Overcast OVC026 27.5 24.2 82% 31 76.12 0.0
04 21:15 N 6 16.09 Mostly Cloudy BKN028 27.8 24.2 81% 32 76.1 0.0
04 20:55 NE 6 16.09 Partly Cloudy SCT028 SCT034 28.1 24.3 80% 32 76.07 0.0
04 20:35 N 6 16.09 Partly Cloudy SCT026 SCT036 SCT044 28.7 24 76% 33 76.07 0.0
04 20:15 NW 6 16.09 Partly Cloudy SCT036 SCT044 29.6 23.5 70% 34 76.02 0.0
04 19:55 SW 11 16.09 Fair CLR 29.6 23.3 69% 34 76 0.0
04 19:35 SW 13 16.09 Fair CLR 30 22.8 65% 34 76 0.0
04 19:15 S 13 16.09 Fair CLR 30.5 22.6 63% 34 76 0.0
04 18:55 S 9 16.09 Fair CLR 31 22.9 33 31 62% 35 76 0.0
04 18:35 SW 13 16.09 Fair CLR 31.7 22.5 58% 36 76 0.0
04 18:15 S 13 16.09 Fair CLR 31.6 22.3 58% 36 76 0.0
04 17:55 S 11 16.09 Fair CLR 32 22.7 58% 36 76 0.0
04 17:35 S 15 16.09 Fair CLR 32.4 22.4 56% 37 75.97 0.0
04 17:15 S 7 16.09 Fair CLR 32.5 22.1 54% 36 75.95 0.0
04 16:35 SW 9 16.09 Fair CLR 32.7 22.3 54% 37 75.95 0.0
04 16:15 SW 11 16.09 Fair CLR 32.5 21.7 53% 36 75.95 0.0
04 15:55 SW 13 16.09 Fair CLR 32.5 22.7 56% 37 75.95 0.0
04 15:35 S 7 16.09 Fair CLR 32.3 22.2 55% 36 75.95 0.0
04 15:15 SW 6 16.09 Fair CLR 32.3 22.1 55% 36 75.95 0.0
04 14:55 Calm 16.09 Fair CLR 32.4 21.9 54% 36 75.95 0.0
04 14:35 S 6 16.09 Fair CLR 32 21.8 55% 36 75.95 0.0
04 14:15 SE 11 16.09 Fair CLR 32 21.7 54% 35 75.95 0.0
04 13:55 S 7 16.09 Fair CLR 31.9 21.7 55% 35 75.95 0.0
04 13:35 SE 13 16.09 Fair CLR 31.8 22.2 57% 36 75.95 0.0
04 13:15 SE 13 16.09 Fair CLR 31.8 21.8 55% 35 75.95 0.0
04 12:55 S 6 16.09 Fair CLR 31.8 21.6 31.8 23.6 55% 35 75.95 0.0
04 12:35 SE 6 16.09 Fair CLR 31.4 21.3 55% 34 75.95 0.0
04 12:15 SE 11 16.09 Fair CLR 31.1 21.1 55% 34 75.95 0.0
04 11:55 SE 7 16.09 Fair CLR 30.8 20.8 55% 33 75.95 0.0
04 11:35 Calm 16.09 Fair CLR 30.7 20.7 55% 33 75.95 0.0
04 11:15 Calm 16.09 Partly Cloudy SCT120 29.8 21 59% 32 75.95 0.0
04 10:55 Calm 16.09 Partly Cloudy SCT120 29.7 20.5 58% 32 75.95 0.0
04 10:35 Calm 16.09 Partly Cloudy SCT120 29 20.8 61% 31 75.95 0.0
04 10:15 S 6 16.09 Fair CLR 28.2 20.9 65% 30 75.95 0.0
04 09:55 Calm 16.09 Fair CLR 27.4 20.6 66% 29 75.95 0.0
04 09:35 W 7 16.09 Fair CLR 27.1 20.8 69% 29 75.95 0.0
04 09:15 SW 7 16.09 Fair CLR 26.5 20.7 71% 28 75.95 0.0
04 08:55 Calm 16.09 Fair CLR 25.6 21 76% 27 75.92 0.0
04 08:35 SW 11 16.09 Fair CLR 25 21.1 79% 26 75.92 0.0
04 08:15 W 6 16.09 Fair CLR 24.5 21.5 83% 25 75.92 0.0
04 07:55 S 6 16.09 Fair CLR 23.9 22.3 91% 23 75.92 0.0
04 07:35 SW 6 16.09 Fair CLR 23.6 22.4 93% 75.9 0.0
04 07:15 S 6 16.09 Fair CLR 23.9 22.1 90% 23 75.87 0.0
04 06:55 S 6 16.09 Fair CLR 24.3 21.9 25.7 24 87% 24 75.87 0.0
04 06:35 SW 9 16.09 Fair CLR 24 22 89% 24 75.87 0.0
04 06:15 SW 13 16.09 Fair CLR 24.2 22 88% 24 75.87 0.0
04 05:55 SW 7 16.09 Fair CLR 24.5 21.7 84% 25 75.87 0.0
04 05:35 SW 7 16.09 Partly Cloudy SCT065 SCT080 24.6 21.6 83% 25 75.84 0.0
04 05:15 SW 6 16.09 Partly Cloudy SCT065 SCT080 24.8 21.5 82% 25 75.84 0.0
04 04:55 W 7 16.09 Partly Cloudy SCT065 25 21.4 80% 26 75.84 0.0
04 04:35 SW 9 16.09 Partly Cloudy SCT065 SCT075 SCT090 25.2 21.3 79% 26 75.84 0.0
04 04:15 SW 13 16.09 Partly Cloudy SCT075 SCT100 25.3 21.3 79% 26 75.82 0.0
04 03:55 SW 15 16.09 Mostly Cloudy SCT070 BKN090 25.6 21.3 77% 27 75.82 0.0
04 03:35 SW 20 16.09 Fair CLR 25.7 21.5 78% 27 75.79 0.0
04 03:15 S 22 G 30 16.09 Partly Cloudy SCT060 SCT080 SCT110 25.5 21.8 80% 27 75.77 0.0
04 02:35 S 17 16.09 Partly Cloudy SCT085 24.8 23.5 93% 25 75.82 0.0
04 02:15 S 13 16.09 Partly Cloudy SCT085 25 23.6 92% 26 75.82 0.0
04 01:55 S 9 16.09 Fair CLR 25.1 24.2 95% 26 75.84 0.0
04 01:35 S 9 16.09 Fair CLR 25 25 100% 25 75.84 0.0
04 01:15 SE 7 16.09 Fair CLR 24.7 24.7 100% 24 75.84 0.0
04 00:55 SE 11 16.09 Partly Cloudy SCT060 24.8 24.8 27 24.7 100% 25 75.84 0.0
04 00:35 SE 15 16.09 Partly Cloudy SCT060 24.8 24.8 100% 25 75.84 0.0
04 00:15 SE 11 16.09 Fair CLR 24.8 24.8 100% 25 75.84 0.0
03 23:55 SE 11 16.09 Fair CLR 25 25 100% 25 75.84 0.0
03 23:35 SE 15 16.09 Partly Cloudy SCT120 25 25 100% 25 75.84 0.0
03 22:35 SE 13 16.09 Overcast OVC120 25.2 24.7 97% 26 75.87 0.0
03 22:15 SE 11 16.09 Overcast OVC120 25.5 24.2 93% 27 75.87 0.0
03 21:55 SE 9 16.09 Mostly Cloudy BKN120 25.5 24.2 93% 27 75.87 0.0
03 21:35 E 7 16.09 Fair CLR 25.5 23.7 90% 27 75.87 0.0
03 21:15 SE 9 16.09 Fair CLR 25.5 24 91% 27 75.84 0.0
03 20:55 SE 9 16.09 Partly Cloudy SCT120 25.6 23.8 90% 27 75.84 0.0
03 20:35 SE 15 16.09 Fair CLR 25.6 23.5 88% 27 75.84 0.0
03 20:15 SE 11 16.09 Fair CLR 25.8 23.1 85% 27 75.84 0.0
03 19:55 SE 7 16.09 Fair CLR 26 22.9 83% 28 75.84 0.0
03 19:35 SE 11 16.09 Fair CLR 26.4 22.6 80% 28 75.82 0.0
03 19:15 SE 13 16.09 Fair CLR 26.7 22.3 77% 29 75.82 0.0
03 18:55 SE 13 16.09 Fair CLR 27 22.1 28.2 25.7 75% 29 75.79 0.0
03 18:35 SE 17 16.09 Fair CLR 27.3 21.7 72% 30 75.79 0.0
03 18:15 SE 15 16.09 Fair CLR 27.5 21.3 69% 30 75.79 0.0
03 17:55 SE 15 16.09 Partly Cloudy SCT120 27.7 21 67% 30 75.79 0.0
03 17:35 SE 11 16.09 Fair CLR 27.5 20.7 67% 29 75.79 0.0
03 17:15 SE 17 G 28 16.09 Fair CLR 27.3 20.5 66% 29 75.79 0.0
03 16:55 SE 19 G 26 16.09 Fair CLR 28.1 20.2 62% 30 75.79 0.0
03 16:35 SE 13 16.09 Fair CLR 27.8 19.8 62% 29 75.82 0.0
03 16:15 SE 24 G 35 16.09 Fair CLR 27.7 19.4 61% 29 75.82 0.0
03 15:55 SE 28 G 37 16.09 Fair CLR 27.9 18.8 58% 29 75.79 0.0
03 15:35 SE 19 G 28 16.09 Fair CLR 28.2 18.5 56% 29 75.82 0.0
03 15:15 SE 22 G 33 16.09 Fair CLR 28.2 18.6 56% 29 75.84 0.0
03 14:55 SE 17 G 31 16.09 Fair CLR 27.7 18.3 57% 29 75.84 0.0
03 14:35 SE 22 G 30 16.09 Partly Cloudy SCT110 27.5 17.7 55% 28 75.87 0.0
03 14:15 SE 19 G 28 16.09 Partly Cloudy SCT110 27.5 17.4 54% 28 75.9 0.0
03 13:55 E 13 G 19 16.09 Partly Cloudy SCT110 27.2 17.6 56% 28 75.9 0.0
03 13:35 E 11 G 30 16.09 Partly Cloudy SCT110 26.4 17.5 58% 27 75.9 0.0
03 13:15 SE 13 G 37 16.09 Partly Cloudy SCT110 26.3 17.4 58% 27 75.9 0.0
03 12:55 SE 17 16.09 Mostly Cloudy BKN110 25.6 18.2 25.6 21 64% 27 75.92 0.0 0.46
03 12:35 S 13 16.09 Partly Cloudy SCT110 25.4 18.7 67% 26 75.92 0.0
03 12:15 SE 13 16.09 Partly Cloudy SCT110 25.2 19 69% 26 75.9 0.0
03 11:55 SE 9 16.09 Mostly Cloudy BKN110 24.7 18.9 70% 26 75.92 0.0
03 11:35 SE 19 16.09 Mostly Cloudy BKN100 24.5 18.8 71% 25 75.9 0.0
03 11:15 SE 13 16.09 Partly Cloudy SCT110 24 19.2 75% 25 75.9 0.0
03 10:55 E 13 16.09 Partly Cloudy SCT110 23.2 20.3 84% 75.9 0.0 0.18
03 10:35 SE 9 16.09 Partly Cloudy SCT020 SCT033 SCT041 21.9 21.1 95% 75.92 0.0 0.18
03 10:15 S 11 16.09 Overcast SCT032 SCT060 OVC100 21.5 20.2 92% 75.97 0.0
03 09:55 SE 19 16.09 Partly Cloudy SCT090 SCT110 21.4 20.9 97% 75.9 0.0 0.03 0.28
03 09:15 S 7 16.09 Overcast OVC090 21 0 0% 75.97 0.0
03 08:35 E 17 16.09 Mostly Cloudy SCT013 SCT046 BKN100 21 0 0% 75.9 0.0 0.23
03 08:15 SE 9 16.09 Mostly Cloudy SCT050 SCT075 BKN120 21.7 20.6 94% 76.02 0.0
03 07:55 SE 11 16.09 Partly Cloudy SCT100 SCT120 21.7 20.6 94% 76 0.0 0.03
03 07:35 Calm 16.09 Fair CLR 21.7 20.1 91% 76 0.0 0.03
03 07:15 SW 11 G 26 16.09 Mostly Cloudy SCT037 SCT070 BKN110 22 19.5 86% 76.02 0.0 0.03
03 06:55 S 20 G 30 16.09 Overcast OVC110 22.1 19.2 24 21.6 84% 75.97 0.0 0.08 0.13
03 06:35 SE 19 G 26 16.09 Mostly Cloudy BKN110 22.1 20 88% 75.97 0.0 0.05
03 06:15 SE 13 16.09 Mostly Cloudy BKN110 22.2 19.5 85% 76 0.0 0.03
03 05:55 S 20 G 33 16.09 Mostly Cloudy SCT070 BKN100 BKN120 21.9 20.2 90% 76 0.0 0.05
03 05:35 S 19 G 35 16.09 Overcast BKN090 OVC110 22 20.7 92% 76 0.0 0.03
03 05:15 SW 26 G 46 16.09 Mostly Cloudy BKN090 BKN110 23.6 19.3 77% 76.02 0.0
03 04:55 SW 30 G 44 16.09 Partly Cloudy SCT080 23.8 19.9 79% 76 0.0
03 04:35 SW 15 16.09 Partly Cloudy SCT080 23.1 21.8 92% 75.92 0.0
03 04:15 S 11 16.09 Fair CLR 22 0 0% 75.92 0.0
03 03:55 Calm 16.09 Fair CLR 22 0 0% 75.87 0.0
03 03:35 SE 6 16.09 Fair CLR 22 0 0% 75.87 0.0
03 03:15 Calm 16.09 Fair CLR 22 0 0% 75.87 0.0
03 01:15 E 9 16.09 Fair CLR 23 22.7 98% 75.9 0.0
03 00:55 E 9 16.09 Fair CLR 23 22.8 29.4 23 99% 75.92 0.0
03 00:35 E 11 16.09 Fair CLR 23 22.8 99% 75.92 0.0
03 00:15 E 11 16.09 Fair CLR 23.4 22.4 94% 75.92 0.0
02 23:55 SE 11 16.09 Fair CLR 23.5 22.2 92% 75.92 0.0
02 23:35 SE 13 16.09 Fair CLR 23.6 22 91% 75.92 0.0
02 23:15 SE 11 16.09 Fair CLR 23.8 21.8 89% 75.95 0.0
02 22:55 SE 13 16.09 Fair CLR 24.1 21.5 85% 24 75.95 0.0
02 22:35 SE 11 16.09 Fair CLR 24.5 21.3 82% 25 75.95 0.0
02 22:15 SE 9 16.09 Fair CLR 25 21 79% 26 75.97 0.0
02 21:55 SE 11 16.09 Fair CLR 25 20.9 78% 26 75.97 0.0
02 21:35 SE 9 16.09 Fair CLR 25.8 20.5 73% 27 75.95 0.0
02 21:15 SE 7 16.09 Fair CLR 26 20.4 71% 27 75.95 0.0
02 20:55 SE 11 16.09 Fair CLR 26.5 20.2 68% 28 75.95 0.0
02 20:35 SE 7 16.09 Fair CLR 27.2 19.7 64% 29 75.95 0.0
02 20:15 SE 7 16.09 Fair CLR 27.7 19.1 60% 29 75.92 0.0
02 19:55 S 6 16.09 Fair CLR 28 19 58% 29 75.92 0.0
02 19:35 S 6 16.09 Fair CLR 28.3 19.2 58% 30 75.92 0.0
02 19:15 SW 7 16.09 Fair CLR 29 18.3 52% 30 75.92 0.0
02 18:55 SW 9 16.09 Fair CLR 29.4 18.1 30.8 27.8 51% 30 75.92 0.0
02 18:35 SW 11 16.09 Fair CLR 29.6 17.9 49% 30 75.92 0.0
02 18:15 SW 7 16.09 Fair CLR 30 18.5 50% 31 75.92 0.0
02 17:55 SW 7 16.09 Fair CLR 30.1 18.6 50% 31 75.92 0.0
02 17:35 S 6 16.09 Fair CLR 30.4 19.2 51% 32 75.9 0.0
02 17:15 SW 9 16.09 Fair CLR 30.8 19.1 50% 32 75.92 0.0
02 16:55 S 6 16.09 Fair CLR 30.5 19.3 51% 32 75.92 0.0
02 16:35 S 7 16.09 Fair CLR 30.5 19.5 52% 32 75.92 0.0
02 16:15 SW 7 16.09 Fair CLR 30.6 19.3 51% 32 75.95 0.0
02 15:55 SE 15 16.09 Fair CLR 30.3 19.5 52% 32 75.95 0.0
02 15:35 S 13 16.09 Fair CLR 30.3 19 51% 32 75.95 0.0
02 15:15 SW 11 16.09 Fair CLR 30.1 18.6 50% 31 75.95 0.0
02 14:55 Calm 16.09 Fair CLR 29.7 18.3 50% 31 75.95 0.0
02 14:35 SW 9 16.09 Fair CLR 29.7 18.4 51% 31 75.95 0.0
02 14:15 S 11 16.09 Fair CLR 29.6 18.5 51% 31 75.97 0.0
02 13:55 W 9 16.09 Fair CLR 29.1 18 51% 30 76 0.0
02 13:35 W 9 16.09 Fair CLR 29.1 18 51% 30 76 0.0
02 13:15 W 6 16.09 Fair CLR 28.1 18 54% 29 76 0.0
02 12:55 SW 17 16.09 Fair CLR 28.1 17.9 28.1 18 54% 29 76.02 0.0
02 12:35 SW 15 16.09 Fair CLR 27.6 18 56% 29 76.05 0.0
02 12:15 S 17 16.09 Fair CLR 27.1 17.9 57% 28 76.05 0.0
02 11:55 S 17 16.09 Fair CLR 26.1 18.2 62% 27 76.07 0.0
02 11:35 S 11 16.09 Fair CLR 25.6 17.9 63% 27 76.05 0.0
02 11:15 S 13 16.09 Fair CLR 25 18.1 66% 26 76.05 0.0
02 10:55 SE 15 16.09 Fair CLR 23.9 18.6 72% 25 76.05 0.0
02 10:35 SE 15 16.09 Fair CLR 23 19.2 79% 76.05 0.0
02 10:15 SE 15 16.09 Fair CLR 22.1 19.4 85% 76.05 0.0
02 09:55 SE 15 16.09 Fair CLR 21.5 19.9 91% 76.05 0.0
02 09:35 SE 9 16.09 Partly Cloudy SCT006 21 0 0% 76.07 0.0
02 09:15 E 13 16.09 Partly Cloudy SCT006 20 0 0% 76.05 0.0
02 08:55 E 9 16.09 Partly Cloudy SCT005 19 0 0% 76.05 0.0
02 08:35 SE 13 16.09 Fair CLR 19 0 0% 76.07 0.0
02 08:15 E 13 16.09 Fair CLR 18 0 0% 76.05 0.0
02 07:55 SE 13 16.09 Fair CLR 18 0 0% 76.07 0.0
02 07:35 SE 13 16.09 Fair CLR 18 0 0% 76.12 0.0
02 07:15 SE 9 16.09 Fair CLR 18 0 0% 76.02 0.0
02 06:55 Calm 16.09 Fair CLR 18 0 24.1 17.8 0% 76 0.0 1.73
02 06:35 E 9 16.09 Fair CLR 18 0 0% 76.02 0.0
02 06:15 E 9 16.09 Fair CLR 18 0 0% 76.05 0.0
02 05:55 NE 15 16.09 Partly Cloudy SCT065 SCT120 18 0 0% 76.12 0.0 0.08
Date Time (cdt) Wind (kph) Vis. (km) Weather Sky Cond. Air Dwpt Max. Min. Relative Humidity Wind Chill (°C) Heat Index (°C) altimeter (cm) sea level (mb) 1 hr 3 hr 6 hr
6 hour
Temperature (ºC) Pressure Precipitation (cm)